sat.trackr.live / text

‹ back to catalog

STARLINK-6226

NORAD 56544 · 2023-065AT

PAYLOAD ACTIVE UNKNOWN

§ Identity

Operator
Country
US
Launch date
2023-05-14
Launch site
AFETR
Launch vehicle
Mass (kg)
RCS (m²)

Purposes: comms

External: N2YO · Heavens-Above · Gunter

§ Orbital elements

Epoch: 2026-09-20T12:33:11.337696Z

Period
94.27 min
Inclination
43.0014°
Eccentricity
0.0000972
Mean motion
15.27575651 rev/d
Perigee alt
482.4 km
Apogee alt
483.7 km
Semi-major
6,861.2 km
B*
1.2690e-5
RAAN
202.9125°
Arg perigee
251.7560°
Mean anomaly
108.3186°
Rev number
18,627

§ Raw data

STARLINK-62261 56544U 23065AT  26263.52304789  .00000087  00000+0  12690-4 0  99932 56544  43.0014 202.9125 0000972 251.7560 108.3186 15.27575651186278

JSON: /api/v1/satellites/56544 · /tle

For live sub-satellite position, see the globe view (requires WebGL).

§ Visibility from observer

Set your observer location to see the next 7 days of passes ≥ 10°. The values pass through the URL so the page stays shareable.

No JS? Fill the form by hand. The geolocation button needs JavaScript.